Wind_Speed
15 15 14 14 12 12 10 10 10 10 10 8 7 9 11 13 12 12 12 13 13 13 15 16 16 17 16 16 17 17 16 16 16 16 16 15 15 15 15 14 13 13 13
13 14 14 14 13 11 10 9 9 10 9 9 9 10 11 13 13 13 11 11 11 13 16 17 16 15 15 16 16 16 16 16 15 15 14 14 14 14 13 13 12 12 11
16 14 15 15 13 11 10 10 10 10 9 9 10 10 13 12 11 8 9 9 9 12 14 14 14 15 15 15 16 17 16 15 14 13 12 11 12 12 11 11 10 10 11
16 14 16 16 14 12 10 10 9 10 10 10 9 12 12 11 9 7 9 9 9 11 15 14 14 14 15 15 15 15 15 14 13 12 11 11 11 11 10 11 10 10 11
15 15 16 17 15 13 12 11 10 10 10 10 10 13 12 8 7 6 6 10 10 10 13 14 13 13 14 14 14 13 13 13 12 11 10 11 11 11 11 11 11 11 11
15 17 17 18 17 15 13 13 11 11 11 11 11 12 11 8 6 6 5 6 6 9 13 13 13 13 13 14 12 12 12 12 11 11 11 12 11 12 11 11 11 11 11
14 19 20 20 19 17 16 13 12 11 11 13 12 11 9 7 3 10 7 6 6 7 12 13 13 12 12 12 11 10 11 11 11 10 10 11 11 12 11 11 11 10 10
15 20 21 21 20 19 16 14 14 13 14 13 10 8 7 7 6 10 8 6 5 8 13 14 13 13 12 11 10 9 10 11 10 10 11 11 12 11 10 10 10 9 9
18 21 22 23 22 20 17 16 15 15 16 15 8 7 6 9 9 8 8 8 9 8 12 13 13 13 12 10 8 9 10 10 9 10 10 10 12 10 10 9 8 8 7
20 22 23 22 21 20 19 18 16 16 16 13 9 7 7 7 13 13 10 9 10 10 13 15 13 12 11 9 8 8 9 8 9 9 10 11 11 11 9 8 7 7 7
24 24 24 22 21 20 19 19 18 16 15 13 10 7 5 7 10 14 13 9 9 11 13 13 12 11 10 8 7 7 8 7 8 9 9 10 11 11 10 10 9 9 9
27 27 25 23 21 20 18 18 17 15 13 12 11 8 6 8 12 14 13 13 9 12 13 13 12 11 10 7 6 6 6 6 6 6 7 7 9 10 12 12 12 11 11
27 27 26 23 20 19 18 17 16 15 14 13 12 7 6 10 14 13 13 15 9 10 12 14 14 12 10 8 6 5 5 5 4 3 4 5 7 8 9 10 10 10 10
27 27 26 23 21 19 19 17 16 16 14 13 12 8 8 10 12 12 13 14 13 12 13 14 14 11 9 7 6 5 4 4 2 1 2 4 6 7 8 8 8 8 8
24 25 25 23 21 20 20 19 17 15 16 13 10 9 8 11 13 13 14 17 16 12 13 14 13 12 9 7 5 3 4 4 3 2 2 3 5 6 7 7 6 7 8
25 25 25 23 22 21 19 18 17 18 16 13 11 9 9 11 13 15 15 15 16 15 15 15 14 12 10 8 6 5 5 5 6 5 5 5 5 6 7 7 6 6 7
23 24 25 23 23 21 19 17 20 19 17 14 11 9 8 11 13 15 16 16 16 16 15 15 14 13 11 8 6 5 6 7 8 8 8 8 8 8 9 10 9 8 9
23 24 25 24 23 21 19 18 22 20 20 15 12 10 8 10 12 13 16 17 17 17 17 15 13 11 9 8 7 8 8 9 9 10 10 11 11 11 11 11 11 11 11
24 24 25 24 23 21 18 22 22 23 22 17 13 10 8 10 12 13 14 17 18 18 18 16 14 12 10 10 10 10 11 11 10 11 12 12 13 14 14 14 14 13 12
26 25 25 24 23 21 20 24 23 25 22 17 15 11 9 9 12 14 15 16 17 17 17 16 15 13 12 12 11 11 11 12 12 12 12 13 15 16 16 17 17 17 15
27 28 28 27 25 23 21 24 23 22 20 18 16 14 12 10 11 14 15 16 17 17 17 17 15 14 14 14 13 12 13 12 13 14 15 15 16 17 18 18 19 19 18
30 30 30 28 27 26 24 22 19 18 19 19 17 15 13 11 9 10 13 15 16 17 16 15 16 15 15 14 14 15 14 14 14 15 15 16 18 18 19 20 20 20 20
31 32 32 31 29 31 27 27 23 25 25 23 20 18 14 12 11 11 12 13 15 15 15 16 16 16 15 15 16 17 16 16 16 16 17 17 18 18 20 20 21 21 21
31 35 35 34 31 33 30 25 29 28 20 20 20 17 16 15 13 13 13 14 15 15 16 17 18 17 17 17 18 17 18 18 18 18 18 20 20 21 22 22 22 23 23
29 33 35 36 33 32 32 30 30 33 24 22 21 20 18 16 14 13 14 15 16 17 18 19 19 19 19 20 19 20 20 20 20 22 21 22 23 23 23 23 24 23 25
26 30 35 35 34 34 27 31 29 29 26 25 25 22 19 17 15 14 14 16 17 18 19 20 21 21 20 21 21 21 22 23 23 25 26 23 24 23 25 24 24 24 25
Wind_Direction
173 161 164 160 157 154 150 144 140 132 124 117 120 128 124 123 118 108 103 99 100 107 110 112 110 107 102 100 97 99 98 96 98 97 93 92 90 82 81 82 79 77 75
175 167 167 163 163 160 156 154 150 137 127 119 120 129 128 125 120 113 102 100 104 113 120 121 116 111 107 105 102 100 99 98 96 95 95 95 91 87 83 79 74 72 70
173 174 172 170 169 166 162 164 156 142 136 131 134 134 136 134 133 124 105 102 105 114 119 117 113 110 109 107 107 106 101 95 92 86 89 88 85 83 78 76 72 72 71
173 173 177 173 171 171 167 171 163 151 145 148 151 148 146 137 142 141 127 118 114 120 125 123 115 113 112 109 106 102 98 94 89 85 77 76 73 70 66 67 67 68 72
184 179 179 175 174 173 169 175 173 160 157 158 157 156 153 146 136 132 145 121 108 121 128 124 122 119 116 110 104 101 95 89 83 80 75 68 61 62 63 64 67 72 76
195 184 182 178 176 177 174 179 182 172 170 167 162 163 166 161 160 213 181 179 139 132 141 136 131 127 125 115 114 111 103 91 84 74 65 58 55 58 61 63 69 73 74
192 188 183 181 178 178 178 181 184 183 181 171 170 175 193 197 237 185 182 169 135 139 151 145 143 134 123 118 115 106 96 90 87 80 66 61 64 66 65 67 69 72 71
192 191 185 182 179 179 180 181 186 188 184 179 178 196 207 210 186 176 192 202 184 159 161 154 148 139 130 127 124 116 100 91 82 69 62 59 61 61 66 69 68 65 64
189 192 187 182 180 179 179 183 188 189 187 188 201 212 217 192 197 192 197 215 206 169 164 157 152 145 141 134 124 112 104 98 89 75 64 62 64 60 60 63 61 57 53
185 184 184 186 184 180 181 184 187 188 193 204 207 223 219 223 202 204 194 201 191 178 169 165 160 149 140 137 130 121 113 103 93 78 65 61 58 56 49 45 40 37 30
181 180 183 185 184 185 188 186 185 190 201 205 212 235 244 218 203 199 191 190 182 180 173 168 158 144 148 144 131 120 109 100 82 69 60 56 57 53 51 49 40 34 32
183 181 184 184 187 189 191 193 195 198 203 200 212 207 238 225 197 200 203 202 183 185 179 166 159 160 156 143 141 129 118 103 87 74 62 54 54 49 48 49 48 49 47
185 186 185 186 185 191 194 198 199 198 202 205 209 237 228 201 202 210 206 209 205 190 180 170 167 166 160 160 151 138 124 115 101 84 60 43 43 40 42 42 43 37 34
186 188 188 185 190 190 195 199 197 199 209 213 226 225 208 202 202 207 202 201 202 196 184 178 169 166 163 169 165 160 154 151 168 148 37 27 26 22 21 26 28 27 24
189 190 188 189 191 194 197 195 198 209 207 214 211 210 215 207 204 202 203 197 204 198 194 181 175 168 173 182 179 182 191 201 211 259 302 337 1 359 354 354 6 3 4
187 191 190 193 194 197 201 201 204 201 204 207 204 212 221 208 201 200 200 199 206 202 198 188 178 177 182 191 200 201 218 228 234 243 267 289 310 318 322 327 333 335 338
188 191 193 196 197 198 202 205 204 205 202 200 209 217 217 206 201 197 196 200 200 201 201 196 186 182 188 199 219 230 239 245 249 253 261 269 278 290 302 304 311 318 324
192 192 195 196 197 201 203 208 202 199 198 201 208 212 206 199 200 195 195 194 195 197 201 202 199 193 198 210 228 243 248 249 254 258 260 268 276 280 284 290 297 304 310
193 199 200 201 204 204 207 194 196 200 197 205 207 209 204 193 195 194 188 190 195 197 200 204 208 209 215 225 232 240 254 259 260 262 267 272 276 278 282 283 288 292 297
198 199 204 205 207 203 202 193 191 189 200 206 208 208 209 198 195 196 194 193 196 200 202 207 214 222 232 242 246 245 249 258 263 267 270 275 277 279 281 283 286 288 289
199 203 205 204 207 207 195 189 191 198 206 212 211 207 209 204 200 200 199 199 201 203 207 212 220 229 239 249 257 261 259 258 263 268 274 276 277 277 279 279 280 283 286
201 205 208 205 210 208 201 196 197 210 211 212 215 215 215 217 217 212 210 209 209 212 215 219 227 233 242 251 259 265 269 271 272 274 273 272 274 278 278 278 279 279 282
205 206 212 211 210 211 208 210 208 210 211 211 212 216 217 224 229 231 228 226 225 226 227 229 234 239 244 253 259 264 267 270 273 277 278 278 277 277 274 274 276 278 278
212 209 213 214 214 211 210 218 212 219 223 218 215 218 219 219 225 235 238 239 237 236 239 240 241 245 251 254 255 262 264 269 272 274 276 277 278 278 278 279 279 279 281
217 213 213 216 216 217 223 207 224 219 221 216 218 221 224 228 230 234 240 243 244 242 240 243 246 247 248 253 256 259 266 270 273 274 271 275 275 275 275 276 279 281 281
219 217 216 218 219 214 228 227 231 248 210 215 217 221 226 236 240 241 246 247 245 245 246 246 247 251 254 257 260 262 267 269 272 274 278 276 272 271 274 276 277 277 278
Height
3149 3150 3153 3155 3157 3158 3160 3161 3162 3163 3164 3165 3165 3165 3166 3167 3168 3168 3168 3168 3168 3168 3168 3169 3169 3169 3170 3171 3171 3171 3172 3172 3172 3172 3172 3172 3172 3173 3173 3173 3172 3172 3172
3149 3150 3153 3155 3157 3159 3161 3162 3163 3164 3165 3166 3166 3167 3168 3168 3170 3170 3170 3171 3171 3171 3171 3171 3172 3173 3173 3174 3174 3175 3175 3175 3176 3175 3176 3175 3175 3175 3175 3174 3175 3174 3174
3147 3150 3152 3155 3157 3160 3162 3163 3164 3166 3167 3167 3168 3169 3168 3170 3171 3172 3172 3173 3173 3173 3174 3175 3175 3176 3176 3177 3178 3177 3178 3179 3179 3179 3179 3179 3178 3178 3178 3177 3177 3176 3175
3147 3149 3152 3154 3157 3160 3162 3164 3165 3166 3167 3169 3170 3170 3170 3171 3172 3173 3174 3175 3175 3176 3176 3177 3178 3179 3179 3180 3181 3181 3181 3180 3181 3181 3181 3181 3180 3180 3180 3179 3178 3177 3176
3146 3148 3151 3153 3156 3159 3161 3164 3165 3166 3168 3169 3170 3171 3172 3173 3174 3176 3177 3177 3178 3178 3178 3179 3180 3181 3181 3182 3182 3183 3183 3183 3183 3184 3184 3183 3183 3181 3181 3180 3179 3178 3177
3146 3147 3150 3152 3156 3158 3161 3164 3165 3166 3168 3169 3171 3172 3173 3174 3175 3176 3177 3178 3179 3180 3181 3181 3182 3183 3184 3184 3185 3185 3184 3185 3185 3185 3185 3183 3183 3183 3182 3181 3180 3180 3179
3144 3146 3148 3152 3155 3158 3160 3163 3165 3166 3168 3170 3171 3172 3174 3175 3176 3176 3177 3179 3180 3181 3181 3183 3184 3185 3186 3187 3187 3187 3187 3187 3187 3187 3186 3185 3184 3184 3183 3182 3182 3182 3181
3143 3145 3148 3151 3154 3157 3160 3163 3164 3165 3168 3169 3171 3173 3174 3175 3176 3177 3178 3179 3181 3182 3183 3184 3186 3186 3187 3187 3188 3188 3188 3188 3189 3189 3188 3187 3186 3185 3185 3184 3183 3183 3182
3141 3144 3147 3150 3153 3156 3159 3161 3164 3166 3167 3169 3171 3173 3174 3175 3176 3177 3179 3180 3181 3182 3183 3185 3187 3187 3188 3189 3190 3190 3190 3191 3191 3191 3190 3189 3187 3187 3186 3185 3185 3184 3183
3139 3142 3146 3150 3153 3156 3158 3160 3163 3165 3167 3169 3171 3172 3173 3174 3175 3177 3179 3180 3181 3183 3184 3186 3188 3189 3190 3191 3192 3192 3192 3193 3193 3192 3191 3190 3188 3188 3187 3186 3186 3185 3184
3137 3141 3145 3149 3152 3155 3157 3159 3162 3165 3167 3169 3170 3171 3172 3173 3174 3176 3178 3180 3182 3183 3184 3187 3189 3190 3191 3192 3193 3193 3194 3194 3194 3193 3192 3191 3190 3189 3188 3187 3187 3186 3185
3135 3139 3143 3147 3151 3154 3157 3159 3161 3164 3167 3169 3170 3171 3172 3172 3174 3175 3178 3180 3181 3183 3184 3187 3189 3191 3191 3192 3193 3194 3194 3194 3194 3194 3194 3193 3192 3191 3190 3189 3188 3188 3187
3135 3138 3142 3146 3149 3153 3156 3158 3161 3163 3166 3168 3169 3170 3172 3172 3173 3175 3177 3179 3182 3184 3185 3187 3189 3190 3192 3193 3194 3195 3194 3195 3195 3195 3195 3194 3193 3193 3192 3191 3190 3190 3189
3133 3137 3141 3145 3149 3151 3155 3158 3160 3163 3165 3167 3169 3170 3171 3172 3173 3174 3176 3178 3181 3183 3185 3187 3189 3190 3192 3193 3193 3194 3195 3195 3195 3196 3195 3195 3194 3194 3193 3192 3191 3191 3190
3132 3137 3140 3144 3147 3150 3153 3156 3160 3162 3164 3166 3168 3169 3170 3171 3172 3174 3175 3178 3180 3182 3185 3187 3188 3190 3192 3193 3193 3194 3195 3195 3195 3195 3196 3195 3194 3194 3194 3193 3192 3191 3190
3131 3136 3138 3142 3146 3148 3152 3155 3158 3160 3163 3165 3167 3169 3170 3170 3171 3173 3175 3177 3179 3181 3184 3186 3188 3190 3191 3193 3194 3194 3195 3195 3195 3195 3195 3195 3194 3194 3194 3193 3192 3191 3190
3130 3134 3137 3140 3144 3147 3150 3154 3157 3159 3162 3164 3167 3168 3169 3170 3171 3172 3173 3176 3178 3181 3183 3184 3187 3189 3191 3192 3193 3193 3194 3194 3195 3194 3194 3194 3194 3194 3193 3193 3191 3190 3189
3128 3132 3135 3138 3142 3145 3148 3151 3154 3157 3160 3164 3166 3167 3168 3169 3170 3171 3172 3174 3177 3180 3182 3184 3186 3188 3190 3191 3192 3192 3193 3193 3193 3193 3193 3193 3192 3192 3191 3191 3190 3189 3187
3126 3131 3133 3137 3140 3143 3145 3149 3152 3156 3159 3162 3165 3166 3168 3168 3170 3171 3172 3174 3177 3179 3181 3183 3185 3186 3188 3189 3190 3190 3191 3191 3191 3191 3191 3190 3190 3189 3189 3188 3187 3186 3184
3123 3128 3132 3135 3137 3141 3143 3146 3150 3153 3157 3160 3163 3164 3166 3168 3169 3170 3172 3173 3175 3178 3180 3182 3184 3185 3186 3187 3188 3188 3189 3189 3189 3189 3188 3188 3187 3186 3186 3185 3184 3183 3182
3121 3125 3128 3131 3135 3138 3141 3144 3148 3152 3155 3159 3162 3163 3165 3167 3168 3169 3171 3172 3174 3176 3178 3180 3182 3183 3184 3184 3185 3185 3186 3187 3187 3186 3185 3184 3184 3183 3183 3182 3181 3180 3178
3118 3122 3125 3129 3132 3136 3140 3144 3148 3151 3153 3156 3159 3161 3162 3164 3165 3167 3169 3171 3172 3174 3176 3178 3179 3180 3181 3181 3182 3182 3183 3184 3183 3182 3182 3182 3181 3180 3178 3177 3176 3175 3174
3114 3118 3122 3125 3129 3133 3137 3141 3144 3146 3149 3151 3156 3158 3160 3162 3163 3164 3166 3169 3170 3172 3173 3174 3176 3177 3177 3178 3178 3180 3179 3179 3178 3178 3178 3177 3176 3176 3175 3173 3172 3171 3170
3110 3114 3119 3122 3125 3129 3133 3137 3140 3144 3148 3152 3155 3157 3158 3160 3162 3163 3164 3166 3167 3169 3170 3171 3172 3173 3174 3175 3175 3176 3175 3175 3174 3175 3174 3173 3172 3171 3169 3168 3168 3167 3165
3106 3109 3113 3118 3121 3125 3124 3128 3136 3139 3145 3148 3150 3152 3155 3157 3159 3160 3161 3163 3164 3166 3167 3168 3169 3170 3170 3171 3171 3171 3170 3170 3170 3169 3169 3168 3167 3166 3165 3164 3163 3162 3160
3102 3105 3109 3113 3117 3121 3124 3127 3130 3133 3140 3143 3146 3149 3151 3154 3156 3157 3159 3160 3161 3162 3163 3164 3165 3165 3166 3166 3167 3167 3166 3166 3165 3163 3162 3163 3162 3162 3160 3159 3157 3156 3155